Tracking 22454 objects as of 5-Mar-2021
HD Live streaming from Space Station
objects crossing your sky now

DELTA 1 DEB

Track DELTA 1 DEB now!
10-day predictions


NORAD ID: 42640
Int'l Code: 1975-052LZ
Perigee: 941.0 km
Apogee: 1,271.4 km
Inclination: 99.8 °
Period: 107.2 minutes
Semi major axis: 7477 km
RCS: Unknown
Launch date: June 12, 1975
Source: United States (US)
Launch site: AIR FORCE WESTERN TEST RANGE (AFWTR)

Note: This is SATELLITE DEBRIS
aabbcc
Your satellite tracking list
Your tracking list is empty




NASA's NSSDC Master Catalog

Two Line Element Set (TLE):
1 42640U 75052LZ  21063.50996984  .00000157  00000-0  30198-3 0  9994
2 42640  99.7672 263.2663 0220892 122.9333 268.4400 13.42747729356736
Source of the keplerian elements: AFSPC